DW3384 Weather Reports


time (UTC)temp
C
wind
direction
speed
KPH
gust
KPH
rain 1hr
cm
rain 24hr
cm
rain mn
cm
humidity
%
barometer
mb
20260506221533 14 55 1.6 11.3 0.00 0.00 0.00 50 1013.0
20260506220030 13 156 1.6 6.4 0.00 0.00 0.00 52 1013.0
20260506214539 13 321 3.2 12.9 0.00 0.00 0.00 52 1013.3
20260506213029 13 360 3.2 19.3 0.00 0.00 0.00 52 1013.5
20260506211529 13 14 3.2 14.5 0.00 0.00 0.00 52 1013.7
20260506210027 13 17 3.2 9.7 0.00 0.00 0.00 51 1013.7
20260506204527 13 26 3.2 16.1 0.00 0.00 0.00 52 1013.6
20260506203023 12 64 3.2 12.9 0.00 0.00 0.00 52 1013.7
20260506201521 12 21 3.2 11.3 0.00 0.00 0.00 53 1013.8
20260506200016 12 82 4.8 14.5 0.00 0.00 0.00 53 1013.7
20260506194512 12 18 3.2 17.7 0.00 0.00 0.00 54 1013.8
20260506193010 11 129 3.2 19.3 0.00 0.00 0.00 55 1013.8
20260506191509 11 355 4.8 17.7 0.00 0.00 0.00 54 1013.8
20260506190009 11 5 3.2 17.7 0.00 0.00 0.00 54 1013.9
20260506184503 11 71 3.2 12.9 0.00 0.00 0.00 56 1014.2
20260506183005 11 102 4.8 12.9 0.00 0.00 0.00 56 1014.5
20260506181623 10 98 1.6 14.5 0.00 0.00 0.00 57 1014.7
20260506180058 10 342 1.6 8.0 0.00 0.00 0.00 58 1014.8
20260506174556 10 336 1.6 14.5 0.00 0.00 0.00 58 1014.7
20260506173101 10 76 4.8 20.9 0.00 0.00 0.00 59 1014.7
20260506171553 10 80 4.8 17.7 0.00 0.00 0.00 60 1014.9
20260506170055 10 81 4.8 16.1 0.00 0.00 0.00 60 1014.8
20260506164549 9 22 1.6 16.1 0.00 0.00 0.00 61 1014.7
20260506163047 9 44 9.7 19.3 0.00 0.00 0.00 62 1014.5
20260506161547 8 32 3.2 17.7 0.00 0.00 0.00 63 1014.3
20260506160052 8 74 1.6 16.1 0.00 0.00 0.00 64 1013.9
20260506154540 8 197 4.8 20.9 0.00 0.00 0.00 65 1013.9
20260506153059 8 92 9.7 17.7 0.00 0.00 0.00 65 1013.6
20260506151543 8 56 11.3 25.7 0.00 0.00 0.00 66 1013.3
20260506150047 7 95 12.9 22.5 0.00 0.00 0.00 68 1012.9
20260506144537 7 77 6.4 19.3 0.00 0.00 0.00 69 1013.5
20260506143037 7 107 6.4 17.7 0.00 0.00 0.00 70 1013.3
20260506141536 7 198 6.4 24.1 0.00 0.00 0.00 72 1012.4
20260506140035 7 107 9.7 20.9 0.00 0.00 0.00 74 1012.8
20260506134533 6 45 3.2 12.9 0.00 0.00 0.00 76 1014.0
20260506133032 6 89 12.9 22.5 0.00 0.00 0.00 77 1013.2
20260506131538 6 32 1.6 14.5 0.00 0.00 0.00 78 1014.1
20260506130028 6 61 3.2 12.9 0.00 0.00 0.00 78 1013.4
20260506124527 6 65 3.2 12.9 0.00 0.00 0.00 78 1013.5
20260506123025 6 327 1.6 12.9 0.00 0.00 0.00 78 1013.3
20260506121523 6 331 3.2 11.3 0.00 0.00 0.00 78 1012.9
20260506120021 6 101 1.6 12.9 0.00 0.00 0.00 78 1012.3
20260506114521 6 118 0.0 12.9 0.00 0.00 0.00 78 1012.2
20260506113029 6 38 4.8 14.5 0.00 0.00 0.00 77 1012.1
20260506111513 6 107 3.2 12.9 0.00 0.00 0.00 76 1011.9
20260506110011 6 34 3.2 11.3 0.00 0.00 0.00 75 1011.8
20260506104507 7 5 3.2 12.9 0.00 0.00 0.00 74 1011.8
20260506103006 7 51 3.2 14.5 0.00 0.00 0.00 72 1011.5
20260506101501 7 99 4.8 16.1 0.00 0.00 0.00 69 1010.9
20260506100100 7 77 1.6 8.0 0.00 0.00 0.00 69 1010.7
20260506094559 7 360 4.8 12.9 0.00 0.00 0.00 68 1010.6
20260506093058 7 86 1.6 6.4 0.00 0.00 0.00 68 1010.7
20260506091601 7 32 1.6 12.9 0.00 0.00 0.00 68 1010.4
20260506084602 7 254 0.0 17.7 0.00 0.00 0.00 68 1009.6
20260506083055 7 50 4.8 14.5 0.00 0.00 0.00 67 1009.2
20260506081554 8 74 3.2 8.0 0.00 0.00 0.00 66 1010.7
20260506073047 8 74 0.0 12.9 0.00 0.00 0.00 62 1010.0
20260506071546 8 69 0.0 12.9 0.00 0.00 0.00 61 1009.5
20260506061544 8 102 3.2 16.1 0.00 0.00 0.00 62 1009.5
20260506044525 8 65 6.4 27.4 0.00 0.00 0.00 70 1008.0
20260506043021 8 88 6.4 19.3 0.00 0.00 0.00 69 1007.4
20260506041518 8 70 9.7 22.5 0.00 0.00 0.00 69 1007.4
20260506040021 9 80 4.8 19.3 0.00 0.00 0.00 68 1007.2
20260506034520 9 94 4.8 20.9 0.00 0.00 0.00 67 1007.1
20260506033010 9 82 3.2 16.1 0.00 0.00 0.00 66 1007.0
20260506031506 9 100 6.4 17.7 0.00 0.00 0.00 66 1006.6
20260506030015 10 61 3.2 9.7 0.00 0.00 0.00 65 1006.2
20260506024508 10 360 3.2 12.9 0.00 0.00 0.00 65 1006.2
20260506023000 10 267 1.6 14.5 0.00 0.00 0.00 64 1006.2
20260506021559 10 355 1.6 8.0 0.00 0.00 0.00 63 1005.9
20260506020058 10 44 1.6 6.4 0.00 0.00 0.00 63 1005.6
20260506014555 10 17 3.2 9.7 0.00 0.00 0.00 62 1005.1
20260506013107 10 63 3.2 9.7 0.00 0.00 0.00 61 1005.1
20260506011604 11 15 1.6 9.7 0.00 0.00 0.00 60 1005.0
20260506010050 11 25 3.2 9.7 0.00 0.00 0.00 60 1004.7
20260506004547 11 40 1.6 11.3 0.00 0.00 0.00 60 1004.7
20260506003047 11 5 1.6 6.4 0.00 0.00 0.00 60 1004.6
20260506001546 11 96 6.4 14.5 0.00 0.00 0.00 59 1004.5
20260506000044 11 51 3.2 9.7 0.00 0.00 0.00 59 1004.3
20260505234544 11 39 1.6 8.0 0.00 0.00 0.00 59 1004.4
20260505233043 11 57 1.6 9.7 0.00 0.00 0.00 59 1004.8
20260505231543 11 41 3.2 12.9 0.00 0.00 0.00 60 1004.7
20260505230051 11 89 8.0 19.3 0.00 0.00 0.00 59 1004.6
20260505224538 11 48 8.0 19.3 0.00 0.00 0.00 59 1004.4
20260505223047 11 93 8.0 20.9 0.00 0.00 0.00 58 1004.4